Presure
245 241 277 290 276 266 277 328 421 407 398 430 430 421 414 406 395 381 363 369 347 375 341 345 341 330 318 313 313 338 390 333 314 260 203 177 221 211 207 171 173 151 173 163 146 149 175 205 176 151 153 171 157 156
268 272 284 269 266 277 448 428 409 390 378 385 403 402 402 394 385 368 353 354 378 363 336 324 321 313 311 314 310 331 346 309 313 259 238 236 189 215 211 200 188 148 158 149 153 171 170 148 155 183 185 196 172 178
271 280 268 275 379 448 432 416 399 383 371 362 381 386 387 393 371 359 347 352 366 340 335 404 319 307 302 307 312 372 323 309 284 251 248 200 166 177 176 209 204 196 188 156 173 140 171 177 132 167 151 173 169 175
274 269 283 462 448 434 422 407 397 379 369 356 360 369 377 379 368 353 346 358 350 329 372 372 322 307 296 306 306 333 304 300 292 249 248 237 236 225 179 191 201 211 204 187 191 183 167 134 170 133 156 160 138 134
267 298 462 449 436 423 415 402 395 383 371 355 344 332 364 374 368 352 347 350 339 320 376 337 314 313 300 306 292 313 339 301 303 257 242 235 237 227 213 218 218 216 204 202 203 210 195 194 189 150 151 167 185 178
439 425 405 393 428 415 404 395 389 384 379 365 337 311 352 362 360 356 357 347 331 409 349 323 308 298 300 298 292 300 328 311 300 287 240 234 242 230 225 217 217 218 214 213 209 208 203 201 194 200 197 185 201 200
419 405 385 376 369 405 403 395 387 379 377 372 351 312 337 353 361 363 355 345 326 408 348 306 308 299 301 293 295 285 299 326 297 293 274 248 233 244 232 224 217 215 211 210 219 209 210 212 211 213 199 203 200 204
394 376 363 438 416 382 399 398 391 380 377 376 369 358 313 343 350 356 348 339 320 392 356 311 294 313 283 282 288 285 297 313 297 296 277 253 251 248 237 223 219 213 215 212 211 215 216 212 211 212 212 211 210 213
378 471 478 454 432 422 411 379 392 399 400 400 401 382 396 332 344 348 343 335 312 396 357 315 295 305 299 295 300 281 290 304 309 320 276 278 278 242 245 231 218 225 218 216 211 215 215 217 211 210 213 220 223 221
368 369 363 431 428 436 438 464 454 457 374 376 377 380 394 375 338 338 350 324 310 382 325 333 321 295 291 303 289 286 292 293 304 301 296 279 279 241 234 241 236 219 229 224 218 219 218 217 219 222 220 219 220 225
356 359 428 423 426 437 444 424 422 435 445 467 364 371 385 375 338 346 338 319 305 367 328 368 345 325 294 283 286 300 292 286 292 297 296 302 302 276 235 233 235 236 227 218 221 214 212 218 225 225 225 225 225 226
345 407 425 433 422 424 416 411 422 436 464 460 357 376 384 345 333 357 332 313 346 344 321 311 351 331 304 288 287 297 297 286 284 300 302 292 293 293 288 235 234 236 233 233 233 227 221 220 224 224 224 222 226 231
340 403 436 427 412 407 407 415 424 454 445 360 363 372 386 331 387 339 323 300 357 347 338 335 338 345 312 301 292 294 294 289 289 284 290 298 293 288 290 284 280 233 233 233 238 250 252 235 224 224 226 228 226 226
285 432 425 413 407 417 417 415 432 445 420 345 360 375 384 377 344 313 303 297 317 309 325 319 319 313 318 306 287 279 289 285 288 287 283 287 294 289 277 285 294 297 281 279 243 237 237 245 246 245 246 244 241 250
359 408 427 420 408 407 413 413 437 411 408 343 368 365 373 345 328 307 295 335 352 331 317 311 316 317 320 323 314 296 281 279 278 285 286 285 287 292 295 288 279 276 281 286 291 291 245 242 240 244 246 248 245 239
368 392 413 415 421 416 415 409 435 398 399 333 361 359 370 352 318 326 340 329 335 339 330 321 314 303 300 298 303 307 302 289 284 277 283 288 289 283 289 293 294 291 293 298 295 296 300 300 300 251 272 289 299 325
359 405 401 413 411 420 408 410 432 398 396 334 346 351 365 355 338 337 346 336 321 321 324 316 308 307 307 308 304 301 303 306 307 300 295 300 298 293 290 300 297 290 300 305 309 312 314 317 317 332 333 336 341 340
358 352 398 402 408 423 408 410 408 411 389 346 337 343 342 342 343 338 339 337 333 335 330 329 322 315 312 311 311 308 302 304 304 302 301 307 312 315 312 311 316 321 322 327 321 324 328 330 332 331 334 346 376 444
374 347 396 393 403 398 404 409 400 413 396 386 325 334 335 331 333 334 343 338 329 337 330 329 331 331 330 330 329 327 323 314 307 310 313 313 314 317 322 324 327 325 323 326 326 347 339 377 424 430 433 427 424 427
375 355 332 400 403 397 399 415 397 396 402 392 377 319 330 337 329 326 351 343 334 330 334 341 345 345 340 336 334 335 339 343 346 347 349 352 355 354 372 353 377 383 402 406 409 407 409 417 413 408 409 411 410 410
351 365 339 411 399 399 394 406 401 385 395 391 380 364 306 327 344 337 327 322 314 305 293 297 330 327 327 327 330 331 335 337 342 349 355 364 371 385 384 386 391 398 388 391 396 401 391 390 394 394 394 388 383 382
340 358 358 331 413 411 383 386 395 394 380 394 385 376 355 339 321 330 341 340 336 323 310 297 294 293 291 292 298 304 328 324 345 361 355 364 376 379 376 382 381 380 384 386 380 382 375 375 398 438 483 502 419 436
339 345 363 435 428 404 383 387 376 387 383 381 384 389 377 359 351 337 321 329 331 331 335 329 316 313 309 309 316 317 318 291 332 368 377 372 371 378 377 378 379 374 375 359 355 357 407 410 414 412 416 430 488 447
336 338 349 407 429 401 396 386 379 367 376 380 385 376 390 381 374 357 348 344 339 330 337 342 349 349 351 360 302 367 365 366 369 365 372 366 368 371 368 366 371 348 346 404 405 409 407 423 505 501 472 347 327 316
323 329 336 360 422 424 405 394 384 379 375 385 406 426 378 378 381 376 369 366 360 362 357 354 354 362 363 364 361 359 362 363 359 362 355 361 359 357 369 346 334 385 393 397 396 405 421 429 417 337 319 310 304 320
329 319 327 337 368 412 419 401 391 384 377 378 398 407 378 371 369 372 370 368 365 363 363 362 361 360 358 356 349 354 351 354 369 364 350 348 366 341 333 364 386 382 385 389 394 397 370 329 314 305 300 314 316 315
336 324 328 329 344 368 406 424 402 393 378 370 369 369 367 367 368 363 358 356 357 360 357 357 354 350 350 352 353 352 365 352 345 336 351 336 327 339 378 375 376 379 376 373 353 326 310 302 298 304 319 317 302 286
332 331 324 323 329 351 382 422 420 395 377 366 365 359 358 357 356 358 359 363 364 357 348 343 347 356 355 360 361 345 336 339 349 335 323 320 367 371 369 367 364 359 348 326 311 302 296 292 314 328 307 280 275 263
337 337 321 324 323 337 369 421 426 402 377 367 358 354 353 354 354 353 353 353 353 353 352 352 349 348 333 330 328 357 342 334 321 314 327 369 359 363 358 353 348 330 315 303 295 291 302 310 303 279 270 262 269 276
339 341 328 326 318 340 359 426 433 404 384 368 359 354 351 345 344 342 340 340 342 343 339 335 337 330 327 328 338 328 321 314 315 348 338 302 356 352 345 337 323 310 300 292 288 293 304 285 276 266 271 265 266 274
332 339 339 322 325 334 363 425 440 410 384 370 361 350 345 340 336 336 335 337 339 337 329 327 325 337 339 325 318 314 308 324 346 360 353 350 349 339 332 320 308 298 290 285 280 303 288 275 265 265 264 263 267 262
327 334 346 325 332 324 341 415 444 418 391 372 355 347 339 334 331 331 331 331 327 319 320 343 335 326 319 313 308 310 333 326 360 363 343 300 340 328 321 308 297 290 283 279 286 304 280 268 262 253 258 262 255 258
331 335 344 337 325 321 334 405 428 405 376 360 346 338 331 332 327 324 322 333 349 338 329 323 320 315 307 306 306 329 331 355 372 343 343 345 333 324 315 300 291 285 279 279 298 306 276 261 264 251 252 261 257 251
Wind_Speed
120 115 113 111 113 113 116 112 51 50 49 35 30 27 25 24 26 27 32 29 28 34 45 48 55 62 61 58 61 38 59 90 100 113 94 84 100 95 91 77 75 68 73 68 59 59 65 69 65 59 59 66 60 59
120 114 112 114 115 117 45 44 44 46 45 40 29 26 23 24 25 26 32 28 26 37 47 49 56 57 61 61 65 58 68 94 98 113 109 112 87 101 96 95 90 70 72 67 69 77 77 64 69 79 79 76 72 72
117 114 117 118 84 43 41 40 39 39 39 38 30 24 21 23 25 26 31 28 27 38 43 42 64 60 59 57 53 51 80 94 108 113 115 90 81 85 84 104 100 98 94 74 85 62 77 84 48 77 66 78 74 78
116 118 120 45 42 40 38 37 36 35 33 33 28 23 20 22 25 26 29 25 29 38 40 52 66 65 63 62 61 49 89 95 103 114 118 116 115 112 86 94 98 105 102 95 97 90 83 61 80 57 71 72 60 54
118 121 44 42 40 38 36 35 34 33 31 29 25 28 21 20 24 26 27 26 33 37 40 59 63 61 62 58 67 56 60 94 97 115 119 116 118 115 110 111 110 108 103 103 103 102 96 97 96 74 75 81 93 88
55 52 54 52 38 37 35 33 32 31 30 28 26 31 20 19 20 23 26 28 35 37 52 61 63 63 61 57 66 66 48 80 95 104 118 118 119 116 118 114 111 111 110 109 107 107 107 107 103 103 101 94 103 102
56 55 54 53 50 37 35 32 29 28 27 26 25 29 20 18 18 19 26 28 33 39 55 61 62 58 53 57 60 75 64 56 94 99 110 120 116 121 122 120 114 112 110 108 113 108 108 109 109 108 104 106 104 106
57 56 55 36 38 42 36 32 29 28 26 23 23 23 25 17 18 20 26 28 32 42 55 66 59 57 65 63 63 72 61 53 86 95 105 118 121 123 124 119 116 112 116 113 110 111 114 112 110 108 109 109 109 109
55 34 27 26 30 36 37 31 28 27 25 21 19 19 18 20 19 21 25 26 32 38 53 58 56 56 59 61 61 72 66 57 61 63 104 109 111 120 121 123 117 124 119 116 109 116 116 116 107 106 109 114 116 116
54 53 51 28 30 30 31 24 19 19 17 13 12 12 13 18 20 23 24 26 28 36 39 52 63 66 64 57 64 67 62 61 55 77 92 102 106 120 120 121 125 117 124 124 118 119 118 116 117 121 118 115 114 120
55 55 34 32 29 27 19 19 18 19 17 15 9 10 14 17 22 23 27 27 28 35 37 38 54 69 64 60 62 56 62 66 63 62 77 79 90 106 121 121 124 126 125 117 119 108 106 114 123 125 125 123 120 120
54 39 31 26 24 20 18 18 20 18 13 6 8 11 16 17 20 25 27 26 34 34 33 37 43 57 64 65 61 55 56 67 68 53 59 79 87 92 100 124 123 125 125 127 128 126 118 115 120 119 118 112 117 124
53 35 24 23 24 23 22 22 18 14 8 7 10 13 20 16 30 24 25 26 31 32 31 31 30 38 54 61 62 59 60 63 61 67 62 60 73 88 92 102 109 123 123 124 126 128 130 130 120 118 121 121 115 110
56 35 29 27 26 23 20 16 18 7 11 10 14 20 27 28 24 22 24 27 25 26 31 30 34 38 46 61 64 63 62 64 63 65 72 70 67 79 95 93 90 90 109 115 127 121 123 127 129 130 130 129 126 127
49 42 32 27 26 23 19 14 15 10 11 14 19 22 30 24 24 26 27 25 33 34 33 33 32 31 31 35 52 63 65 65 65 64 68 72 73 75 78 91 101 104 104 104 105 108 127 124 121 124 124 124 120 114
47 43 37 31 25 20 16 10 6 12 15 15 20 25 31 28 23 24 25 25 26 31 35 36 38 38 39 40 41 46 57 67 70 70 71 74 76 81 81 82 87 93 96 96 101 102 103 105 107 127 118 114 112 105
46 42 37 31 25 17 13 9 6 15 14 18 20 25 27 30 27 26 27 28 26 28 34 35 36 39 39 42 47 49 52 53 56 65 69 70 75 79 83 83 88 94 90 90 91 93 96 96 96 94 94 95 95 96
45 45 36 33 26 18 12 8 4 15 16 22 21 24 26 27 28 28 28 29 29 29 30 33 35 37 38 40 45 49 52 54 57 60 64 65 67 73 78 79 79 80 82 84 88 90 90 90 89 88 89 91 82 39
40 42 35 31 24 19 13 7 3 7 16 20 21 24 26 26 26 26 28 28 27 31 30 29 30 32 33 33 35 39 44 52 57 58 62 65 67 69 72 75 78 79 79 81 81 78 84 66 43 40 38 37 37 33
39 38 39 28 23 17 15 7 3 5 14 18 25 24 25 27 27 27 33 30 28 28 28 28 26 24 26 28 30 31 32 34 35 37 39 41 44 48 45 53 44 42 36 34 34 37 39 35 33 33 32 31 31 29
40 37 36 22 21 15 13 8 3 8 8 18 23 29 24 27 29 28 28 27 27 27 27 24 26 25 25 27 28 29 30 31 32 32 33 33 31 28 29 29 28 26 30 31 31 30 26 27 25 25 24 22 20 17
40 39 36 32 16 11 10 9 3 5 10 11 21 27 31 30 28 30 31 31 30 29 27 27 27 28 28 28 27 27 28 27 29 28 26 26 26 26 25 23 23 23 24 24 21 19 19 18 20 24 26 21 7 5
38 38 37 19 12 10 10 6 5 3 5 10 14 22 30 35 34 32 31 32 31 31 32 30 29 29 29 28 27 26 26 26 25 24 23 22 19 16 15 17 18 17 13 13 15 13 14 11 8 3 1 4 5 11
36 38 36 27 15 12 9 5 2 2 1 4 9 17 21 29 34 37 36 34 33 31 31 30 30 29 29 28 26 24 22 20 20 18 14 12 13 13 14 13 10 8 9 12 10 9 5 4 5 4 11 25 21 19
34 35 35 35 23 15 10 5 3 1 2 3 3 9 20 21 25 28 31 32 32 31 30 27 25 22 22 21 20 19 17 13 12 11 12 12 11 10 8 7 9 7 3 4 4 4 5 10 19 29 26 23 21 25
34 33 34 34 33 22 12 8 4 1 3 4 7 12 16 17 18 20 22 25 26 26 25 24 23 21 18 15 12 11 10 11 10 10 11 9 9 10 10 3 3 3 6 7 10 16 28 32 29 27 25 25 27 29
33 32 32 32 33 30 19 10 3 3 6 8 8 10 10 12 13 15 17 17 18 18 17 16 13 12 13 12 13 13 12 12 12 10 11 12 14 7 4 7 9 11 15 20 31 34 32 30 28 27 28 31 34 30
31 29 29 30 30 32 25 12 2 6 8 9 11 12 11 11 11 10 11 11 12 14 16 16 15 15 14 13 14 15 14 13 14 14 16 15 6 10 12 15 18 22 30 35 35 33 31 30 29 31 36 31 28 23
27 26 26 27 28 30 28 13 2 8 10 11 13 13 13 12 12 13 13 14 16 18 18 17 17 18 20 19 18 14 16 16 17 16 10 10 14 16 20 23 27 35 37 36 34 32 31 33 36 33 30 27 26 28
25 24 23 24 25 28 28 12 2 10 13 12 13 14 15 15 16 16 17 16 16 16 19 20 20 20 19 18 17 17 16 17 14 9 13 20 18 22 26 31 37 39 37 35 34 33 35 37 34 31 30 27 26 29
23 22 21 21 22 24 25 13 4 13 13 13 15 16 17 18 18 17 16 16 16 18 19 19 18 16 17 18 17 15 16 11 8 9 16 18 23 28 32 37 39 38 36 36 35 34 38 36 33 30 29 27 27 25
21 21 18 18 19 20 22 12 6 14 15 14 17 17 18 18 18 18 17 17 18 19 18 18 19 18 18 17 17 14 9 12 10 15 18 22 28 32 35 39 39 38 37 36 35 35 39 36 32 28 27 26 24 23
19 18 16 14 16 16 19 9 8 12 15 17 18 18 17 16 16 16 15 14 14 18 19 19 18 17 16 15 14 9 10 9 12 19 21 25 31 34 39 41 39 39 37 36 34 36 39 33 33 27 25 26 24 20
Wind_Direction
312 314 312 310 312 314 312 311 306 307 308 311 307 299 285 266 251 241 247 244 228 210 205 193 186 190 198 198 204 199 207 204 204 207 216 224 213 216 218 226 229 234 230 234 240 241 234 227 243 251 253 247 252 253
314 313 311 313 314 313 301 301 302 303 305 309 308 300 286 262 245 240 245 239 235 206 200 196 196 196 198 203 203 205 200 203 205 208 210 209 223 216 215 222 228 237 235 238 235 237 234 246 248 240 242 243 250 252
314 312 313 314 311 302 299 297 295 296 300 302 305 299 285 263 246 239 244 238 225 205 205 197 198 201 202 206 206 198 200 204 203 207 211 223 230 228 231 218 220 226 230 239 238 248 235 239 257 248 256 252 257 257
312 313 314 309 306 303 298 293 289 289 290 293 298 297 283 263 247 240 242 241 215 206 199 189 194 197 202 204 204 201 202 206 206 208 210 213 213 215 230 228 229 222 224 233 231 235 241 245 242 262 256 259 262 261
314 315 315 311 308 304 299 295 290 285 281 280 284 284 284 267 248 241 236 233 209 200 198 189 193 196 201 206 204 207 210 207 207 209 212 214 214 216 221 221 222 223 231 234 235 230 242 240 244 251 255 261 248 258
323 322 320 321 312 308 305 299 295 289 282 272 268 275 277 267 251 241 231 226 206 200 188 187 194 198 203 206 206 209 212 211 211 210 214 217 216 218 219 223 224 225 228 230 232 235 237 239 248 244 248 259 250 252
324 323 323 322 322 311 306 303 297 290 282 275 264 267 265 260 247 234 221 217 205 199 188 191 195 195 196 204 204 209 212 218 212 212 213 216 220 219 220 222 226 228 231 233 232 238 239 239 242 244 251 251 255 254
325 324 323 310 307 312 308 304 300 290 285 280 267 252 266 247 234 222 214 209 200 194 191 194 198 200 202 204 204 210 212 218 213 214 215 217 218 219 221 224 227 230 231 234 237 238 239 243 245 247 249 251 254 254
327 339 330 319 307 301 305 304 302 296 293 289 276 259 245 242 227 214 212 205 198 191 197 193 199 190 196 203 205 212 213 217 217 222 217 219 219 222 223 225 229 228 232 235 240 240 242 243 249 251 252 251 252 255
331 330 328 329 319 317 321 326 320 317 292 280 258 244 222 215 215 208 202 200 195 194 192 200 196 203 207 202 204 211 210 215 220 222 220 222 222 225 227 227 229 234 232 235 239 241 244 248 249 249 252 255 257 257
333 333 334 331 330 331 340 338 330 330 327 322 240 211 191 193 205 198 195 194 188 193 197 199 203 202 208 209 212 215 211 217 219 222 224 228 228 227 230 231 231 233 236 239 241 247 251 250 249 251 253 256 259 261
334 335 333 334 337 347 346 341 339 338 346 100 211 178 176 192 199 185 189 190 187 195 197 197 203 203 204 212 215 209 211 215 221 223 226 228 230 230 231 233 235 236 238 240 241 244 249 253 253 256 258 262 262 262
335 344 348 343 343 344 346 348 348 358 127 182 166 170 169 187 171 182 182 185 184 188 194 198 201 206 205 204 208 208 211 214 216 222 223 225 232 233 235 235 236 240 241 243 245 245 246 249 255 259 261 263 267 270
332 360 356 349 352 356 353 357 8 102 152 173 161 161 164 165 177 181 182 185 192 192 189 192 185 195 205 207 211 214 214 216 216 220 224 226 228 234 236 238 242 244 242 243 247 250 251 252 254 256 258 261 264 266
344 357 354 351 351 352 357 7 28 141 147 174 159 164 167 175 180 182 186 184 187 195 198 200 193 192 196 206 214 214 217 219 221 226 225 228 230 233 236 239 240 242 244 247 249 251 253 256 259 262 264 266 270 275
347 352 357 357 352 354 2 16 70 167 159 181 165 167 175 178 185 185 180 180 178 179 185 191 194 201 201 204 207 214 222 224 227 228 231 233 233 235 238 241 243 245 247 249 251 254 257 259 261 263 266 270 273 277
346 352 356 358 1 5 11 16 66 176 168 182 169 171 178 183 186 186 189 190 192 187 188 194 200 207 212 211 213 217 220 223 227 232 235 239 240 240 242 246 246 248 251 253 256 258 260 262 265 269 272 274 276 277
345 349 354 357 359 4 10 22 47 179 175 178 176 176 181 187 191 190 188 191 197 202 204 205 207 212 215 216 217 220 224 227 229 232 236 237 239 242 245 248 250 252 254 256 258 261 264 267 270 273 275 278 280 287
346 346 348 355 358 3 6 25 75 155 189 171 190 183 185 186 191 199 196 193 199 199 204 208 211 216 221 224 226 227 228 229 233 235 238 241 245 248 251 253 256 259 261 264 266 268 270 273 278 284 286 283 281 281
350 347 350 348 355 360 5 6 121 153 181 182 176 197 190 190 193 196 199 201 202 205 208 209 209 211 215 221 226 232 237 240 243 245 248 250 253 254 262 259 266 267 269 269 270 270 273 281 283 280 280 280 277 275
349 351 349 347 351 357 11 8 120 158 169 189 178 183 204 196 189 195 201 204 208 209 212 215 217 222 224 229 233 237 242 246 252 254 258 262 266 267 264 262 262 267 264 267 273 278 282 280 278 277 279 279 276 268
351 354 354 354 347 351 9 24 37 156 179 179 193 186 192 197 202 199 200 203 204 212 217 217 220 222 224 225 227 230 243 243 254 259 261 263 256 256 259 266 265 266 270 274 286 282 273 277 288 296 302 302 274 266
352 355 360 2 0 5 358 9 45 63 169 188 192 199 197 199 204 206 210 209 210 213 217 223 226 229 233 236 241 244 245 242 249 252 246 251 259 267 258 259 261 268 277 263 266 274 301 300 304 307 152 124 94 118
354 356 0 8 11 360 353 341 353 94 33 225 205 201 201 203 203 207 214 218 220 222 224 228 233 235 239 243 246 243 243 244 248 245 252 240 240 239 244 250 260 238 244 305 322 336 337 335 348 72 111 130 129 128
353 357 359 3 14 13 11 359 354 53 46 334 282 191 194 197 206 210 211 211 214 220 224 228 232 245 247 240 234 235 241 246 239 232 225 226 228 229 226 198 203 295 300 352 34 52 91 112 124 132 133 132 129 124
351 354 357 360 6 16 13 2 356 87 110 95 108 144 178 185 189 196 204 212 219 223 227 229 229 227 226 226 222 226 218 217 228 210 208 206 200 176 183 264 245 133 106 107 117 124 133 135 137 136 135 132 131 128
350 351 355 358 3 7 13 12 21 116 144 135 146 153 165 177 181 183 185 189 197 202 203 203 201 200 201 202 204 204 204 194 185 178 185 169 181 173 184 149 135 126 127 131 139 141 142 141 140 138 137 137 135 136
345 349 353 356 359 3 5 16 74 139 156 149 148 148 153 157 162 164 167 173 175 176 176 180 180 180 180 174 164 175 176 174 168 160 169 169 175 150 142 137 134 137 142 146 146 146 145 144 142 142 140 143 142 142
345 347 351 354 359 0 1 8 63 150 160 155 151 148 143 144 145 142 138 138 145 153 156 156 152 150 159 158 163 147 157 154 156 161 153 152 147 143 143 142 145 149 150 151 151 150 147 145 145 148 147 148 146 142
346 347 351 355 360 0 1 8 104 161 162 159 151 144 142 139 138 137 137 140 142 140 142 146 146 148 151 152 147 148 149 155 159 154 154 157 150 151 150 151 154 155 155 155 155 152 151 152 154 154 153 151 149 146
348 347 350 356 360 2 2 10 139 165 164 158 149 145 141 138 137 137 140 139 137 138 141 143 146 148 147 147 148 151 158 163 161 161 157 157 156 156 156 159 160 160 160 159 159 159 159 161 160 160 159 156 155 152
348 350 350 358 0 8 8 15 141 164 159 149 143 141 138 137 136 136 134 135 140 144 145 146 149 151 153 154 158 162 168 171 168 165 165 169 165 164 165 165 165 165 165 166 164 166 166 165 166 164 163 163 159 158
347 348 350 359 2 10 13 45 106 127 128 133 135 136 137 136 136 134 137 145 148 147 145 147 150 153 155 160 165 179 169 167 168 173 172 172 172 172 171 170 171 170 171 171 171 172 171 172 171 171 170 171 169 168